User: anonymous   Login
Location: Mt. Cuba Astronomical Observatory
(39.8100°N, 75.6300°W)
Time: 08:33:25
(UTC-04:00)
Language:

Cosmos 2058 - Orbit

View from above orbital plane
View from above orbital plane
View from above satellite
View from above satellite

Ground track
Ground track

The orbit data is extracted from the following two-line orbital elements,

1 20465U 90010A   18171.69721023 +.00000257 +00000-0 +19555-4 0  9998
2 20465 082.4904 253.4746 0016825 130.0898 230.1803 14.97732847519383
Epoch (UTC): 20 June 2018 16:43:58
Eccentricity: 0.0016825
inclination: 82.4904°
perigee height: 562 km
apogee height: 585 km
right ascension of ascending node: 253.4746°
argument of perigee: 130.0898°
revolutions per day: 14.97732847
mean anomaly at epoch: 230.1803°
orbit number at epoch: 51938

The dashed part of the orbit path shows where the satellite is in the earth's shadow,  

DLR